Location: Bodest
(46.3000°N, 22.5667°E)
Time: 14:28:39
(UTC+00:00)

SL-19 R/B - Pass Details

Date: 01 June 2022
Orbit: 874 x 1208 km, 100.6° (Epoch: 03 July)

Event Time Altitude Azimuth Distance (km) Brightness Sun altitude
Rises 18:43:45 0° 12° (NNE) 4,023 8.1 -4.9°
Reaches altitude 10° 18:46:25 10° 6° (N) 3,092 7.6 -5.3°
Maximum altitude 18:53:02 43° 298° (WNW) 1,627 6.4 -6.1°
Drops below altitude 10° 18:59:47 10° 230° (SW) 3,147 7.3 -7.0°
Sets 19:02:32 0° 224° (SW) 4,102 7.8 -7.4°
